Total_Precipitation_Accumulation
2.94 2.95 3.39 4.23 4.93 4.45 3.95 3.18 2.72 2.56 2.15 1.70 1.28 1.25 1.57 2.06 2.64 3.16 3.45 3.19 2.19 1.74 1.84 2.72 3.48 3.17 2.70 2.30 2.12 2.15 2.15 2.29 2.27 2.25 2.08 1.92 1.79 1.72 1.58 1.47 1.53 1.49 1.36 1.25 1.22 1.38 1.43 1.39 1.52
2.25 3.12 3.98 4.91 4.60 3.93 3.68 3.21 2.91 2.39 1.73 1.39 1.02 0.91 1.02 1.12 1.19 1.92 3.24 3.08 1.93 1.59 1.68 2.04 2.85 2.75 2.35 2.13 2.09 2.22 2.27 2.40 2.35 2.21 1.99 1.84 1.83 1.76 1.61 1.58 1.72 1.55 1.44 1.32 1.27 1.42 1.55 1.46 1.52
2.38 3.51 4.49 4.78 3.71 3.41 3.55 3.28 2.67 1.95 1.41 1.29 1.08 0.92 1.14 1.46 1.53 2.18 2.98 2.30 1.65 1.53 1.65 2.23 2.84 2.58 2.28 2.08 2.25 2.48 2.51 2.48 2.28 2.05 1.85 1.83 1.87 1.81 1.74 1.79 1.88 1.65 1.53 1.37 1.32 1.41 1.46 1.41 1.41
2.75 3.92 4.12 3.86 3.21 2.80 2.93 2.88 2.25 1.81 1.38 0.99 0.97 1.00 1.09 1.52 1.59 1.92 1.97 1.63 1.43 1.55 1.65 2.12 2.73 2.55 2.33 2.13 2.35 2.52 2.58 2.63 2.50 2.20 1.94 1.86 1.85 1.82 1.76 1.82 1.74 1.66 1.58 1.40 1.33 1.37 1.43 1.42 1.39
3.22 4.12 3.99 3.43 3.04 2.72 2.43 2.04 1.80 1.75 1.42 1.06 0.90 1.17 1.59 1.98 1.75 1.62 1.57 1.47 1.31 1.41 1.44 1.71 2.41 2.52 2.36 2.26 2.47 2.56 2.66 2.83 2.74 2.46 2.26 2.02 1.86 1.83 1.82 1.86 1.71 1.64 1.58 1.50 1.44 1.44 1.45 1.44 1.46
3.48 3.59 3.85 3.39 3.02 2.81 2.65 1.95 1.71 1.70 1.33 1.03 0.97 1.26 2.06 2.46 2.05 1.75 1.53 1.59 1.52 1.49 1.39 1.40 2.08 2.35 2.34 2.39 2.45 2.45 2.49 2.58 2.63 2.43 2.23 1.99 1.84 1.84 1.97 2.03 1.84 1.73 1.57 1.49 1.48 1.52 1.58 1.61 1.60
3.41 3.51 3.55 2.94 2.93 3.12 2.71 1.90 1.74 1.65 1.54 1.23 0.91 1.40 2.19 2.64 2.21 1.76 1.60 1.61 1.71 1.62 1.55 1.45 1.60 1.92 2.26 2.33 2.22 2.23 2.24 2.27 2.40 2.26 2.14 1.95 1.89 1.87 1.98 2.02 1.90 1.86 1.77 1.70 1.68 1.82 1.84 1.79 1.83
2.51 2.86 2.92 2.85 2.96 3.16 2.33 1.76 1.44 1.41 1.38 1.04 0.86 1.39 2.10 2.12 1.87 1.74 1.79 1.91 2.03 1.81 1.66 1.48 1.44 1.52 1.60 1.82 1.99 2.17 2.22 2.22 2.30 2.12 1.93 1.81 1.80 1.83 1.96 1.95 1.90 1.96 1.96 1.98 1.99 2.05 2.07 2.13 1.99
2.27 2.99 3.30 3.30 3.01 2.56 1.66 1.51 1.31 1.09 1.14 1.00 0.82 0.91 1.20 1.32 1.47 1.69 1.74 1.82 1.89 1.61 1.50 1.53 1.53 1.55 1.60 1.55 1.61 1.95 2.08 2.12 2.01 1.93 1.81 1.66 1.42 1.37 1.56 1.69 2.04 2.25 2.39 2.33 2.31 2.17 2.03 1.88 1.67
2.33 3.11 3.09 2.48 2.17 1.89 1.38 1.29 1.16 1.17 1.23 1.15 0.95 0.93 1.05 1.16 1.43 1.65 1.58 1.56 1.46 1.35 1.30 1.35 1.37 1.48 1.53 1.39 1.61 1.92 1.75 1.66 1.44 1.45 1.33 1.39 1.34 1.30 1.13 1.36 1.86 2.07 2.11 2.08 2.11 2.07 1.78 1.43 1.09
1.85 2.36 2.12 1.88 1.65 1.39 1.23 1.25 1.11 1.16 1.34 1.22 1.02 1.09 1.35 1.39 1.42 1.41 1.35 1.38 1.21 1.14 1.10 1.04 1.09 1.14 1.27 1.44 1.69 1.98 2.04 1.85 1.64 1.39 1.31 1.35 1.28 1.20 1.08 1.10 1.28 1.43 1.46 1.30 1.29 1.29 1.15 1.04 0.96
1.58 1.54 1.51 1.70 1.46 1.38 1.20 1.16 1.18 1.16 1.22 1.08 0.90 0.97 1.19 1.38 1.50 1.39 1.19 1.17 1.00 0.96 1.03 0.85 0.76 0.90 1.07 1.19 1.32 1.60 1.66 1.59 1.48 1.29 1.19 1.29 1.33 1.22 1.17 1.17 1.21 1.22 1.20 1.22 1.18 1.23 1.19 1.00 0.91
1.93 1.64 1.38 1.35 1.36 1.41 1.21 1.14 1.13 1.12 1.02 0.91 0.85 1.02 1.17 1.21 1.29 1.22 1.10 1.06 1.03 1.01 1.00 0.89 0.77 0.74 0.83 0.89 0.99 1.14 1.30 1.37 1.39 1.36 1.18 1.19 1.31 1.29 1.26 1.20 1.24 1.13 1.04 1.10 1.17 1.21 1.23 1.12 0.98
1.83 1.56 1.51 1.49 1.38 1.36 1.36 1.11 1.09 1.31 1.02 0.90 0.97 1.07 1.07 1.04 1.04 1.13 1.08 1.05 1.00 0.99 1.05 0.97 0.83 0.81 0.83 0.80 0.80 0.80 0.94 1.11 1.22 1.26 1.18 1.19 1.30 1.31 1.37 1.31 1.25 1.18 1.08 1.11 1.28 1.25 1.27 1.24 1.17
1.74 1.87 1.76 1.63 1.49 1.43 1.36 1.50 1.39 1.27 1.05 1.00 1.07 1.03 0.99 0.97 0.95 1.05 1.01 0.95 0.92 0.97 1.02 1.04 0.96 0.96 0.95 0.90 0.86 0.73 0.76 0.86 1.02 1.17 1.17 1.24 1.21 1.16 1.23 1.26 1.20 1.17 1.18 1.20 1.25 1.30 1.37 1.28 1.19
1.94 2.18 2.32 1.92 1.60 1.36 1.40 1.92 1.74 1.39 1.13 1.15 1.12 1.02 0.98 0.95 0.90 0.93 0.93 0.95 0.91 0.95 1.05 1.11 1.06 1.08 1.08 1.08 1.04 0.96 0.98 1.05 1.12 1.29 1.27 1.22 1.26 1.22 1.22 1.25 1.24 1.27 1.30 1.29 1.33 1.40 1.40 1.36 1.34
2.08 2.12 2.01 1.84 1.48 1.23 1.27 1.63 1.62 1.43 1.17 1.05 1.03 0.98 0.89 0.80 0.79 0.77 0.74 0.76 0.83 0.87 0.94 1.02 1.11 1.15 1.14 1.16 1.25 1.33 1.35 1.35 1.35 1.42 1.36 1.24 1.25 1.31 1.43 1.46 1.46 1.42 1.44 1.44 1.39 1.41 1.34 1.34 1.35
1.96 1.64 1.44 1.41 1.32 1.17 1.11 1.23 1.25 1.27 1.14 0.96 0.86 0.83 0.84 0.75 0.71 0.65 0.61 0.62 0.72 0.78 0.84 0.94 1.03 1.22 1.33 1.35 1.34 1.49 1.53 1.56 1.62 1.67 1.52 1.39 1.44 1.57 1.75 1.83 1.72 1.68 1.67 1.65 1.59 1.64 1.53 1.42 1.45
1.41 1.37 1.25 1.08 1.04 1.12 1.04 1.03 1.05 1.04 1.02 0.91 0.78 0.66 0.64 0.63 0.59 0.56 0.53 0.55 0.60 0.67 0.73 0.83 0.92 1.08 1.18 1.24 1.36 1.56 1.73 1.88 1.97 2.02 1.89 1.75 1.72 1.88 2.03 1.95 2.03 2.04 1.90 1.89 1.94 1.98 1.94 1.76 1.62
1.24 1.28 1.13 0.98 0.83 0.87 0.91 0.94 0.94 0.88 0.87 0.77 0.66 0.58 0.51 0.46 0.44 0.40 0.36 0.39 0.44 0.45 0.50 0.61 0.74 0.82 0.95 1.12 1.38 1.59 1.87 1.95 2.03 2.10 2.09 2.00 1.94 2.09 2.13 2.21 2.30 2.33 2.34 2.27 2.16 2.26 2.40 2.14 1.90
1.05 1.12 1.02 0.95 0.84 0.77 0.77 0.94 0.87 0.80 0.76 0.67 0.54 0.47 0.40 0.33 0.29 0.24 0.24 0.31 0.38 0.37 0.40 0.48 0.61 0.77 1.01 1.25 1.57 1.84 2.12 2.23 2.29 2.25 2.26 2.25 2.26 2.31 2.35 2.41 2.46 2.48 2.34 2.33 2.45 2.58 2.90 2.70 2.33
1.04 0.76 0.71 0.73 0.91 0.96 0.79 1.09 0.80 0.66 0.65 0.59 0.51 0.46 0.39 0.31 0.27 0.26 0.25 0.27 0.30 0.34 0.40 0.53 0.73 0.94 1.23 1.57 1.93 2.19 2.46 2.60 2.44 2.41 2.41 2.37 2.29 2.29 2.40 2.40 2.38 2.35 2.29 2.36 2.43 2.50 2.92 3.12 2.82
0.73 0.61 0.72 0.77 0.82 0.79 0.61 0.78 0.70 0.55 0.61 0.53 0.45 0.45 0.45 0.41 0.33 0.31 0.33 0.34 0.39 0.47 0.55 0.74 1.00 1.31 1.60 1.86 2.04 2.29 2.42 2.44 2.39 2.36 2.36 2.27 2.22 2.19 2.20 2.19 2.28 2.29 2.32 2.38 2.55 2.69 2.97 3.00 2.99
0.56 0.67 0.81 0.84 0.90 0.95 0.53 0.62 0.73 0.56 0.52 0.50 0.45 0.40 0.38 0.39 0.37 0.38 0.41 0.50 0.59 0.66 0.82 1.01 1.18 1.49 1.69 1.84 1.95 2.09 2.23 2.29 2.29 2.29 2.33 2.32 2.28 2.16 2.08 2.02 2.09 2.21 2.35 2.39 2.48 2.65 2.92 3.03 3.12
0.55 0.96 1.33 1.34 1.26 0.95 0.46 0.66 0.76 0.56 0.44 0.39 0.40 0.39 0.36 0.40 0.46 0.48 0.59 0.75 0.82 0.87 1.00 1.17 1.25 1.44 1.54 1.60 1.72 1.86 1.91 1.94 1.97 1.98 1.98 1.91 1.86 1.84 1.89 1.94 2.02 2.15 2.25 2.32 2.44 2.58 2.64 2.76 3.01
0.50 0.79 1.32 1.43 1.23 0.89 0.62 0.91 0.82 0.57 0.45 0.41 0.41 0.41 0.43 0.53 0.64 0.75 0.89 0.99 1.07 1.10 1.08 1.14 1.28 1.30 1.30 1.36 1.37 1.49 1.58 1.63 1.67 1.64 1.64 1.68 1.71 1.74 1.68 1.72 1.79 2.00 2.20 2.27 2.38 2.39 2.38 2.44 2.62
0.52 0.56 0.63 0.92 0.87 0.91 0.87 1.04 0.95 0.58 0.48 0.47 0.47 0.46 0.53 0.68 0.89 1.15 1.35 1.44 1.51 1.45 1.29 1.16 1.17 1.15 1.13 1.23 1.30 1.33 1.39 1.43 1.45 1.46 1.38 1.49 1.52 1.52 1.47 1.51 1.53 1.66 1.87 2.12 2.27 2.23 2.16 2.13 2.29
0.43 0.57 0.73 1.09 1.28 1.26 1.14 1.26 1.21 0.81 0.64 0.57 0.60 0.66 0.79 1.00 1.33 1.63 1.90 2.07 2.04 1.82 1.56 1.33 1.15 1.06 1.04 1.10 1.18 1.26 1.29 1.30 1.26 1.30 1.23 1.26 1.36 1.35 1.28 1.28 1.39 1.56 1.67 1.85 2.05 2.13 2.07 2.08 2.16
0.47 0.65 0.82 1.05 1.10 1.41 1.60 1.57 1.28 1.08 0.90 0.83 0.93 1.11 1.29 1.56 1.79 1.98 2.15 2.28 2.08 1.87 1.59 1.32 1.14 1.13 1.15 1.17 1.21 1.23 1.19 1.17 1.15 1.11 1.07 1.11 1.20 1.19 1.18 1.32 1.39 1.47 1.56 1.74 1.99 2.14 2.14 2.07 2.08
0.58 0.84 1.09 1.50 1.39 1.30 1.61 1.69 1.21 1.04 1.02 1.03 1.14 1.23 1.37 1.51 1.54 1.66 1.76 1.77 1.82 1.76 1.56 1.36 1.23 1.22 1.26 1.28 1.31 1.26 1.20 1.14 1.11 1.07 1.00 0.98 0.95 0.92 1.04 1.17 1.22 1.27 1.30 1.50 1.78 1.98 2.03 2.00 1.90